New Orleans, LA

5:41 AM CDT on April 23, 2017 (GMT -0500)
New Orleans International

Weather History for KMSY - May, 2012

Change the Weather History Date:

Sunday, May 27, 2012

  Actual Average Record
Temperature  
Mean Temperature 84 °F -  
Max Temperature 93 °F 88 °F 94 °F (1975)
Min Temperature 75 °F 68 °F 54 °F (1961)
Cooling Degree Days 19    
Growing Degree Days 34 (Base 50)    
Moisture  
Dew Point 71 °F    
Average Humidity 65    
Maximum Humidity 88    
Minimum Humidity 39    
Precipitation  
Precipitation 0.00 in - - ()
Sea Level Pressure  
Sea Level Pressure 29.99 in    
Wind  
Wind Speed 4 mph (NW)    
Max Wind Speed 10 mph    
Max Gust Speed -    
Visibility 9 miles    
Events      
Averages and records for this station are not official NWS values.
T = Trace of Precipitation, MM = Missing Value Source: NWS Daily Summary

Daily Weather History Graph

Daily Weather History Graph

Search for Another Location

Airport or City:

Trip Planner

Search our weather history database for the weather conditions in past years. The results will help you decide how hot, cold, wet, or windy it might be!

Date:

Astronomy

May. 27, 2012 Rise Set
Actual Time 6:01 AM CDT 7:55 PM CDT
Civil Twilight 5:34 AM CDT 8:21 PM CDT
Nautical Twilight 5:02 AM CDT 8:54 PM CDT
Astronomical Twilight 4:28 AM CDT 9:28 PM CDT
Moon 11:51 AM CDT (5/27) 12:15 AM CDT (5/27)
Length of Visible Light 14h 47m
Length of Day
13h 53m
Waxing Crescent, 38% of the Moon is Illuminated
May 27
Waxing Crescent
May 28
First Quarter
Jun 4
Full
Jun 11
Last Quarter
Jun 19
New

Hourly Weather History & Observations

Time (CDT) Temp. Heat Index Dew Point Humidity Pressure Visibility Wind Dir Wind Speed Gust Speed Precip Events Conditions
12:53 AM 78.1 °F - 71.1 °F 79% 30.02 in 10.0 mi Calm Calm - N/A   Clear
1:53 AM 77.0 °F - 72.0 °F 84% 30.01 in 9.0 mi Calm Calm - N/A   Overcast
2:53 AM 77.0 °F - 72.0 °F 84% 30.01 in 10.0 mi WSW 3.5 mph - N/A   Mostly Cloudy
3:53 AM 78.1 °F - 72.0 °F 81% 30.00 in 10.0 mi West 3.5 mph - N/A   Mostly Cloudy
4:53 AM 77.0 °F - 73.0 °F 88% 30.01 in 10.0 mi Calm Calm - N/A   Overcast
5:53 AM 77.0 °F - 73.0 °F 88% 30.02 in 9.0 mi NW 3.5 mph - N/A   Mostly Cloudy
6:53 AM 78.1 °F - 73.9 °F 87% 30.03 in 7.0 mi North 5.8 mph - N/A   Mostly Cloudy
7:53 AM 82.0 °F 87.9 °F 73.9 °F 76% 30.04 in 8.0 mi North 5.8 mph - N/A   Mostly Cloudy
8:53 AM 84.0 °F 91.2 °F 73.9 °F 72% 30.05 in 10.0 mi NNW 6.9 mph - N/A   Scattered Clouds
9:53 AM 86.0 °F 93.0 °F 73.0 °F 65% 30.03 in 10.0 mi North 8.1 mph - N/A   Partly Cloudy
10:53 AM 88.0 °F 93.8 °F 71.1 °F 57% 30.03 in 10.0 mi NNE 9.2 mph - N/A   Clear
11:53 AM 89.1 °F 96.0 °F 72.0 °F 57% 30.03 in 10.0 mi North 5.8 mph - N/A   Partly Cloudy
12:53 PM 91.0 °F 95.6 °F 69.1 °F 48% 30.01 in 10.0 mi NNE 6.9 mph - N/A   Partly Cloudy
1:53 PM 93.0 °F 100.1 °F 71.1 °F 49% 29.98 in 10.0 mi NNE 10.4 mph - N/A   Partly Cloudy
2:53 PM 91.0 °F 95.6 °F 69.1 °F 48% 29.96 in 10.0 mi Variable 6.9 mph - N/A   Partly Cloudy
3:53 PM 93.9 °F 100.3 °F 70.0 °F 46% 29.94 in 9.0 mi ENE 6.9 mph - N/A   Scattered Clouds
4:53 PM 91.9 °F 96.9 °F 69.1 °F 47% 29.94 in 9.0 mi Variable 4.6 mph - N/A   Partly Cloudy
5:53 PM 91.9 °F 96.9 °F 69.1 °F 47% 29.93 in 9.0 mi WNW 4.6 mph - N/A   Partly Cloudy
6:53 PM 89.1 °F 93.7 °F 69.1 °F 52% 29.92 in 9.0 mi SSW 6.9 mph - N/A   Partly Cloudy
7:53 PM 86.0 °F 91.5 °F 71.1 °F 61% 29.92 in 8.0 mi SSW 4.6 mph - N/A   Partly Cloudy
8:53 PM 84.9 °F 89.4 °F 70.0 °F 61% 29.92 in 10.0 mi South 3.5 mph - N/A   Clear
9:53 PM 82.0 °F 85.9 °F 70.0 °F 67% 29.94 in 9.0 mi Calm Calm - N/A   Partly Cloudy
10:53 PM 82.0 °F 86.3 °F 71.1 °F 69% 29.94 in 9.0 mi West 4.6 mph - N/A   Partly Cloudy
11:53 PM 78.1 °F - 72.0 °F 81% 29.94 in 8.0 mi West 4.6 mph - N/A   Clear